| time (UTC) | temp F | wind direction | speed MPH | gust MPH | rain 1hr in | rain 24hr in | rain mn in | humidity % | barometer mb |
| 20260504201500 | 74 | 277 | 6.0 | 11.0 | 0.00 | 0.00 | 0.00 | 41 | 1004.2 |
| 20260504194500 | 73 | 223 | 7.0 | 18.0 | 0.00 | 0.00 | 0.00 | 41 | 1004.7 |
| 20260504193000 | 73 | 229 | 8.0 | 17.0 | 0.00 | 0.00 | 0.00 | 42 | 1004.9 |
| 20260504191500 | 73 | 234 | 7.0 | 15.0 | 0.00 | 0.00 | 0.00 | 43 | 1005.1 |
| 20260504190004 | 72 | 166 | 7.0 | 11.0 | 0.00 | 0.00 | 0.00 | 46 | 1005.4 |
| 20260504184500 | 72 | 250 | 7.0 | 13.0 | 0.00 | 0.00 | 0.00 | 45 | 1005.4 |
| 20260504183000 | 71 | 250 | 7.0 | 13.0 | 0.00 | 0.00 | 0.00 | 44 | 1005.7 |
| 20260504181500 | 71 | 271 | 8.0 | 17.0 | 0.00 | 0.00 | 0.00 | 47 | 1005.8 |
| 20260504180003 | 70 | 185 | 9.0 | 17.0 | 0.00 | 0.00 | 0.00 | 46 | 1005.9 |
| 20260504174500 | 70 | 212 | 7.0 | 13.0 | 0.00 | 0.00 | 0.00 | 49 | 1006.0 |
| 20260504173000 | 69 | 229 | 6.0 | 13.0 | 0.00 | 0.00 | 0.00 | 51 | 1006.1 |
| 20260504171500 | 68 | 225 | 7.0 | 15.0 | 0.00 | 0.00 | 0.00 | 51 | 1006.3 |
| 20260504081459 | 51 | 205 | 4.0 | 8.0 | 0.00 | 0.00 | 0.00 | 60 | 1008.4 |
| 20260504050001 | 51 | 225 | 1.0 | 2.0 | 0.00 | 0.00 | 0.00 | 61 | 1009.7 |
| 20260504044459 | 52 | 196 | 2.0 | 4.0 | 0.00 | 0.00 | 0.00 | 60 | 1009.7 |
| 20260504040007 | 52 | 202 | 2.0 | 4.0 | 0.00 | 0.00 | 0.00 | 59 | 1009.9 |
| 20260504034501 | 52 | 177 | 2.0 | 4.0 | 0.00 | 0.00 | 0.00 | 59 | 1009.9 |
| 20260504030005 | 54 | 210 | 4.0 | 11.0 | 0.00 | 0.00 | 0.00 | 56 | 1009.9 |
| 20260504024501 | 54 | 234 | 4.0 | 8.0 | 0.00 | 0.00 | 0.00 | 56 | 1009.9 |
| 20260504021502 | 53 | 232 | 4.0 | 8.0 | 0.00 | 0.00 | 0.00 | 58 | 1010.1 |
| 20260504020005 | 54 | 250 | 5.0 | 12.0 | 0.00 | 0.00 | 0.00 | 58 | 1010.1 |
| 20260504014501 | 53 | 281 | 4.0 | 15.0 | 0.00 | 0.00 | 0.00 | 59 | 1010.2 |
| 20260504013001 | 53 | 208 | 3.0 | 5.0 | 0.00 | 0.00 | 0.00 | 62 | 1010.1 |
| 20260504011501 | 52 | 215 | 2.0 | 5.0 | 0.00 | 0.00 | 0.00 | 67 | 1010.1 |
| 20260504004502 | 51 | 249 | 2.0 | 4.0 | 0.00 | 0.00 | 0.00 | 70 | 1010.4 |
| 20260504003001 | 51 | 287 | 1.0 | 4.0 | 0.00 | 0.00 | 0.00 | 71 | 1010.4 |
| 20260504001501 | 51 | 248 | 1.0 | 4.0 | 0.00 | 0.00 | 0.00 | 73 | 1010.7 |
| 20260504000006 | 51 | 271 | 2.0 | 6.0 | 0.00 | 0.00 | 0.00 | 74 | 1010.8 |
| 20260503233002 | 51 | 289 | 5.0 | 12.0 | 0.00 | 0.00 | 0.00 | 72 | 1010.6 |
| 20260503231502 | 52 | 294 | 8.0 | 19.0 | 0.00 | 0.00 | 0.00 | 69 | 1010.5 |
| 20260503224501 | 54 | 225 | 6.0 | 16.0 | 0.00 | 0.00 | 0.00 | 58 | 1010.3 |
| 20260503223001 | 54 | 277 | 7.0 | 15.0 | 0.00 | 0.00 | 0.00 | 59 | 1010.0 |
| 20260503221502 | 54 | 232 | 8.0 | 17.0 | 0.00 | 0.00 | 0.00 | 56 | 1010.2 |
| 20260503220006 | 55 | 252 | 6.0 | 18.0 | 0.00 | 0.00 | 0.00 | 54 | 1010.1 |
| 20260503214501 | 55 | 219 | 6.0 | 14.0 | 0.00 | 0.00 | 0.00 | 51 | 1010.0 |
| 20260503213001 | 55 | 263 | 6.0 | 17.0 | 0.00 | 0.00 | 0.00 | 52 | 1010.2 |
| 20260503210005 | 55 | 284 | 6.0 | 14.0 | 0.00 | 0.00 | 0.00 | 52 | 1010.2 |